Tracking 33747 objects as of 12-Apr-2026
HD Live streaming from Space Station
objects crossing your sky now

STARLINK-36696

Track STARLINK-36696 now!
10-day predictions
STARLINK-36696 is classified as:


NORAD ID: 67651
Int'l Code: 2026-022D
Perigee: 471.6 km
Apogee: 473.7 km
Inclination: 97.3 °
Period: 93.9 minutes
Semi major axis: 6843 km
RCS: Unknown
Launch date: February 2, 2026
Source: United States (US)
Launch site: AIR FORCE WESTERN TEST RANGE (AFWTR)
Your satellite tracking list
Your tracking list is empty




NASA's NSSDC Master Catalog

Two Line Element Set (TLE):
1 67651U 26022D   26101.85561027  .00009475  00000-0  29541-3 0  9990
2 67651  97.2846 135.6951 0001512  90.7040 269.4376 15.33449209 10651
Source of the keplerian elements: AFSPC